This is the latest recevied weather packets stored in our database for station/object WA5KWK. If no packets are shown the sender has not sent any weather packets the latest 10 day(s).
| Time | Temp. | Humidity | Pressure | Rain* | Wind** | Luminosity | Snow |
|---|---|---|---|---|---|---|---|
| 1777611604 | 15.56° C | 75% | 1013.9 hPa | 0 mm | - | 0 W/m² | - |
| 1777606804 | 17.22° C | 70% | 1013.3 hPa | 0 mm | - | 0 W/m² | - |
| 1777606204 | 17.22° C | 68% | 1013.3 hPa | 0 mm | - | 0 W/m² | - |
| 1777603205 | 19.44° C | 61% | 1013.2 hPa | 0 mm | - | 11 W/m² | - |
| 1777600804 | 21.11° C | 55% | 1013.2 hPa | 0 mm | - | 84 W/m² | - |
| 1777598705 | 21.11° C | 55% | 1013.1 hPa | 0 mm | - | 225 W/m² | - |
| 1777597505 | 21.67° C | 57% | 1013 hPa | 0 mm | - | 302 W/m² | - |
| 1777596606 | 22.22° C | 53% | 1012.8 hPa | 0 mm | - | 355 W/m² | - |
| 1777595105 | 22.22° C | 53% | 1013 hPa | 0 mm | - | 446 W/m² | - |
| 1777594205 | 22.78° C | 53% | 1013.2 hPa | 0 mm | - | 503 W/m² | - |
| 1777593605 | 22.78° C | 52% | 1013.1 hPa | 0 mm | - | 540 W/m² | - |
| 1777592406 | 22.22° C | 52% | 1013.2 hPa | 0 mm | - | 605 W/m² | - |
| 1777588505 | 22.78° C | 46% | 1013.7 hPa | 0 mm | - | 795 W/m² | - |
| 1777586105 | 21.67° C | 46% | 1013.9 hPa | 0 mm | - | 884 W/m² | - |
| 1777579805 | 21.11° C | 58% | 1014 hPa | 0 mm | - | 990 W/m² | - |
| 1777577405 | 21.11° C | 57% | 1014 hPa | 0 mm | - | 983 W/m² | - |
| 1777575905 | 20.56° C | 55% | 1014.5 hPa | 0 mm | - | 958 W/m² | - |
| 1777572006 | 20.56° C | 51% | 1014.6 hPa | 0 mm | - | 851 W/m² | - |
| 1777571406 | 20° C | 53% | 1014.5 hPa | 0 mm | - | 795 W/m² | - |
| 1777566605 | 18.33° C | 57% | 1014.3 hPa | 0 mm | - | 605 W/m² | - |
| 1777566005 | 17.78° C | 56% | 1014.2 hPa | 0 mm | - | 211 W/m² | - |
| 1777565405 | 17.22° C | 57% | 1014.4 hPa | 0 mm | - | 216 W/m² | - |
| 1777565105 | 17.22° C | 57% | 1014.3 hPa | 0 mm | - | 65 W/m² | - |
| 1777564505 | 17.22° C | 58% | 1014.2 hPa | 0 mm | - | 128 W/m² | - |
| 1777561805 | 15.56° C | 66% | 1014.5 hPa | 0 mm | - | 262 W/m² | - |
* Rain latest hour (hover to see other rain measurements)
** Current wind speed in m/s (hover to see current wind gust speed)